,,Stat5,,Stat1,,Stat2,,Stat3,,Stat4,,Wind1,,Wind1,
time,status,PA1M_AVG,status,PR1M_SUM,status,RH1M_AVG,status,SR1M_AVG,status,TA1M_AVG,status,W1dAve1m,status,W1sAve1m,
2002-10-28, 00:00:01,VALID,917.883,VALID,0,VALID,99.1559,VALID,-0.0509425,VALID,20.1478,VALID,15,VALID,0.403846,
2002-10-28, 00:01:00,VALID,917.901,VALID,0,VALID,99.1559,VALID,-0.0509425,VALID,20.1274,VALID,15,VALID,0.217231,
2002-10-28, 00:02:00,VALID,917.89,VALID,0,VALID,99.1585,VALID,-0.0509425,VALID,20.1537,VALID,15,VALID,0.325,
2002-10-28, 00:03:00,VALID,917.88,VALID,0,VALID,99.1737,VALID,-0.0509425,VALID,20.1798,VALID,15,VALID,0.283573,
2002-10-28, 00:04:00,VALID,917.87,VALID,0,VALID,99.1661,VALID,-0.0339617,VALID,20.1733,VALID,15,VALID,0.00651042,
2002-10-28, 00:05:00,VALID,917.862,VALID,0,VALID,99.1712,VALID,-0.0169808,VALID,20.1858,VALID,16,VALID,0.4125,
2002-10-28, 00:06:00,VALID,917.835,VALID,0,VALID,99.1763,VALID,-0.0169808,VALID,20.1992,VALID,18,VALID,0.640224,
2002-10-28, 00:07:00,VALID,917.821,VALID,0,VALID,99.1852,VALID,0,VALID,20.2148,VALID,18,VALID,0.691306,
2002-10-28, 00:08:00,VALID,917.789,VALID,0,VALID,99.1852,VALID,-0.0169808,VALID,20.228,VALID,19,VALID,0.41862,
2002-10-28, 00:09:00,VALID,917.755,VALID,0,VALID,99.1902,VALID,-0.0339617,VALID,20.2377,VALID,18,VALID,0.0690456,
2002-10-28, 00:10:00,VALID,917.72,VALID,0,VALID,99.1623,VALID,-0.0509425,VALID,20.2022,VALID,18,VALID,0.0567434,
2002-10-28, 00:11:00,VALID,917.697,VALID,0,VALID,99.1406,VALID,-0.0509425,VALID,20.1763,VALID,18,VALID,0.0773026,
2002-10-28, 00:12:00,VALID,917.66,VALID,0,VALID,99.1406,VALID,-0.0509425,VALID,20.1634,VALID,18,VALID,0,
2002-10-28, 00:13:00,VALID,917.66,VALID,0,VALID,99.1445,VALID,-0.0679233,VALID,20.1699,VALID,18,VALID,0,
2002-10-28, 00:14:00,VALID,917.667,VALID,0,VALID,99.1546,VALID,-0.0339617,VALID,20.1704,VALID,18,VALID,0.00431743,
2002-10-28, 00:15:00,VALID,917.649,VALID,0,VALID,99.1343,VALID,-0.0509425,VALID,20.1443,VALID,21,VALID,0.247889,
2002-10-28, 00:16:00,VALID,917.625,VALID,0,VALID,99.1368,VALID,-0.0509425,VALID,20.1343,VALID,18,VALID,0.215345,
2002-10-28, 00:17:00,VALID,917.62,VALID,0,VALID,99.1292,VALID,-0.0679233,VALID,20.1214,VALID,346,VALID,0.279772,
2002-10-28, 00:18:00,VALID,917.595,VALID,0,VALID,99.133,VALID,-0.0339617,VALID,20.1077,VALID,355,VALID,0.382179,
2002-10-28, 00:19:00,VALID,917.58,VALID,0,VALID,99.1546,VALID,-0.0679233,VALID,20.1281,VALID,15,VALID,0.470313,
2002-10-28, 00:20:00,VALID,917.574,VALID,0,VALID,99.1661,VALID,-0.0169808,VALID,20.1405,VALID,24,VALID,0.60853,
2002-10-28, 00:21:00,VALID,917.574,VALID,0,VALID,99.1763,VALID,-0.0509425,VALID,20.15,VALID,10,VALID,0.471955,
2002-10-28, 00:22:00,VALID,917.567,VALID,0,VALID,99.1572,VALID,-0.0169808,VALID,20.1306,VALID,357,VALID,0.606027,
2002-10-28, 00:23:00,VALID,917.559,VALID,0,VALID,99.1572,VALID,-0.0679233,VALID,20.1206,VALID,7,VALID,0.550253,
2002-10-28, 00:24:00,VALID,917.573,VALID,0,VALID,99.1546,VALID,0,VALID,20.1343,VALID,16,VALID,0.708116,
2002-10-28, 00:25:00,VALID,917.558,VALID,0,VALID,99.1674,VALID,-0.0169808,VALID,20.1405,VALID,9,VALID,0.385352,
2002-10-28, 00:26:00,VALID,917.549,VALID,0,VALID,99.1674,VALID,-0.0509425,VALID,20.1472,VALID,344,VALID,0.225561,
2002-10-28, 00:27:00,VALID,917.549,VALID,0,VALID,99.1496,VALID,-0.101885,VALID,20.1184,VALID,337,VALID,0.107572,
2002-10-28, 00:28:00,VALID,917.541,VALID,0,VALID,99.1381,VALID,-0.0849042,VALID,20.0821,VALID,329,VALID,0.274306,
2002-10-28, 00:29:00,VALID,917.539,VALID,0,VALID,99.1368,VALID,-0.0169808,VALID,20.0854,VALID,344,VALID,0.473818,
2002-10-28, 00:30:00,VALID,917.521,VALID,0,VALID,99.1661,VALID,-0.0339617,VALID,20.1015,VALID,9,VALID,0.764391,
2002-10-28, 00:31:00,VALID,917.515,VALID,0,VALID,99.1788,VALID,-0.0339617,VALID,20.1107,VALID,18,VALID,0.60074,
2002-10-28, 00:32:00,VALID,917.511,VALID,0,VALID,99.1813,VALID,-0.0339617,VALID,20.144,VALID,19,VALID,0.439453,
2002-10-28, 00:33:00,VALID,917.503,VALID,0,VALID,99.1763,VALID,-0.0169808,VALID,20.1373,VALID,9,VALID,0.373311,
2002-10-28, 00:34:00,VALID,917.478,VALID,0,VALID,99.1585,VALID,-0.0339617,VALID,20.1308,VALID,11,VALID,0.294408,
2002-10-28, 00:35:00,VALID,917.441,VALID,0,VALID,99.1496,VALID,0,VALID,20.1077,VALID,26,VALID,0.605574,
2002-10-28, 00:36:00,VALID,917.423,VALID,0,VALID,99.1292,VALID,-0.0169808,VALID,20.1015,VALID,35,VALID,0.592548,
2002-10-28, 00:37:00,VALID,917.388,VALID,0,VALID,99.1406,VALID,-0.0169808,VALID,20.0916,VALID,44,VALID,0.579814,
2002-10-28, 00:38:00,VALID,917.389,VALID,0,VALID,99.1572,VALID,0,VALID,20.1047,VALID,42,VALID,0.330659,
2002-10-28, 00:39:00,VALID,917.388,VALID,0,VALID,99.1508,VALID,-0.0679233,VALID,20.1276,VALID,37,VALID,0.19442,
2002-10-28, 00:40:00,VALID,917.389,VALID,0,VALID,99.1724,VALID,-0.0169808,VALID,20.137,VALID,24,VALID,0.360853,
2002-10-28, 00:41:00,VALID,917.383,VALID,0,VALID,99.1572,VALID,-0.0339617,VALID,20.1308,VALID,6,VALID,0.344151,
2002-10-28, 00:42:00,VALID,917.373,VALID,0,VALID,99.1356,VALID,0,VALID,20.1015,VALID,351,VALID,0.243973,
2002-10-28, 00:43:00,VALID,917.369,VALID,0,VALID,99.1139,VALID,-0.0339617,VALID,20.0854,VALID,351,VALID,0,
2002-10-28, 00:44:00,VALID,917.369,VALID,0,VALID,99.1165,VALID,-0.0509425,VALID,20.0894,VALID,352,VALID,0.0989583,
2002-10-28, 00:45:00,VALID,917.359,VALID,0,VALID,99.0987,VALID,-0.0339617,VALID,20.0732,VALID,4,VALID,0.379883,
2002-10-28, 00:46:00,VALID,917.36,VALID,0,VALID,99.1216,VALID,-0.0339617,VALID,20.0757,VALID,4,VALID,0.244191,
2002-10-28, 00:47:00,VALID,917.345,VALID,0,VALID,99.1305,VALID,-0.0339617,VALID,20.099,VALID,4,VALID,0.186098,
2002-10-28, 00:48:00,VALID,917.315,VALID,0,VALID,99.1457,VALID,-0.0509425,VALID,20.1115,VALID,4,VALID,0.302083,
2002-10-28, 00:49:00,VALID,917.293,VALID,0,VALID,99.1457,VALID,-0.0339617,VALID,20.1177,VALID,4,VALID,0.280405,
2002-10-28, 00:50:00,VALID,917.258,VALID,0,VALID,99.1343,VALID,-0.0339617,VALID,20.105,VALID,4,VALID,0.347039,
2002-10-28, 00:51:00,VALID,917.237,VALID,0,VALID,99.1127,VALID,-0.0679233,VALID,20.0928,VALID,4,VALID,0.253084,
2002-10-28, 00:52:00,VALID,917.205,VALID,0,VALID,99.0796,VALID,-0.0169808,VALID,20.0662,VALID,310,VALID,0.165582,
2002-10-28, 00:53:00,VALID,917.181,VALID,0,VALID,99.0707,VALID,-0.0339617,VALID,20.0568,VALID,309,VALID,0.000633446,
2002-10-28, 00:54:00,VALID,917.175,VALID,0,VALID,99.0733,VALID,-0.0169808,VALID,20.0441,VALID,309,VALID,0.000411184,
2002-10-28, 00:55:00,VALID,917.17,VALID,0,VALID,99.0745,VALID,-0.0679233,VALID,20.0474,VALID,309,VALID,0,
2002-10-28, 00:56:00,VALID,917.179,VALID,0,VALID,99.0783,VALID,-0.101885,VALID,20.0277,VALID,309,VALID,0,
2002-10-28, 00:57:00,VALID,917.17,VALID,0,VALID,99.0593,VALID,-0.0679233,VALID,20.0312,VALID,309,VALID,0,
2002-10-28, 00:58:00,VALID,917.157,VALID,0,VALID,99.0834,VALID,-0.0679233,VALID,20.028,VALID,309,VALID,0,
2002-10-28, 00:59:00,VALID,917.121,VALID,0,VALID,99.0936,VALID,-0.0679233,VALID,20.0344,VALID,309,VALID,0.0303571,
2002-10-28, 01:00:00,VALID,917.102,VALID,0,VALID,99.0974,VALID,-0.0339617,VALID,20.0538,VALID,309,VALID,0.00506757,
2002-10-28, 01:01:00,VALID,917.06,VALID,0,VALID,99.105,VALID,-0.0679233,VALID,20.0436,VALID,309,VALID,0.0010016,
2002-10-28, 01:02:00,VALID,917.051,VALID,0,VALID,99.119,VALID,-0.0849042,VALID,20.0735,VALID,309,VALID,0,
2002-10-28, 01:03:00,VALID,917.028,VALID,0,VALID,99.1254,VALID,-0.101885,VALID,20.0635,VALID,309,VALID,0,
2002-10-28, 01:04:00,VALID,917.053,VALID,0,VALID,99.1394,VALID,-0.0679233,VALID,20.0697,VALID,309,VALID,0,
2002-10-28, 01:05:00,VALID,917.046,VALID,0,VALID,99.1521,VALID,-0.0679233,VALID,20.0861,VALID,331,VALID,0.249805,
2002-10-28, 01:06:00,VALID,917.06,VALID,0,VALID,99.1674,VALID,-0.0509425,VALID,20.1053,VALID,12,VALID,0.48758,
2002-10-28, 01:07:00,VALID,917.064,VALID,0,VALID,99.1763,VALID,-0.0339617,VALID,20.1217,VALID,17,VALID,0.517628,
2002-10-28, 01:08:00,VALID,917.077,VALID,0,VALID,99.1813,VALID,-0.0339617,VALID,20.1311,VALID,17,VALID,0.614149,
2002-10-28, 01:09:00,VALID,917.061,VALID,0,VALID,99.1839,VALID,-0.0339617,VALID,20.1373,VALID,17,VALID,0.548986,
2002-10-28, 01:10:00,VALID,917.047,VALID,0,VALID,99.1864,VALID,-0.0509425,VALID,20.1279,VALID,17,VALID,0.355263,
2002-10-28, 01:11:00,VALID,917.023,VALID,0,VALID,99.1712,VALID,-0.101885,VALID,20.1214,VALID,17,VALID,0.131168,
2002-10-28, 01:12:00,VALID,917.005,VALID,0,VALID,99.1724,VALID,-0.0679233,VALID,20.1182,VALID,17,VALID,0,
2002-10-28, 01:13:00,VALID,917.006,VALID,0,VALID,99.1712,VALID,-0.0509425,VALID,20.1187,VALID,17,VALID,0,
2002-10-28, 01:14:00,VALID,916.972,VALID,0,VALID,99.1724,VALID,-0.0679233,VALID,20.1122,VALID,17,VALID,0,
2002-10-28, 01:15:00,VALID,916.962,VALID,0,VALID,99.189,VALID,-0.0679233,VALID,20.1189,VALID,17,VALID,0,
2002-10-28, 01:16:00,VALID,916.949,VALID,0,VALID,99.1801,VALID,-0.0849042,VALID,20.1152,VALID,17,VALID,0,
2002-10-28, 01:17:00,VALID,916.91,VALID,0,VALID,99.1839,VALID,-0.0849042,VALID,20.1152,VALID,17,VALID,0,
2002-10-28, 01:18:00,VALID,916.896,VALID,0,VALID,99.1877,VALID,-0.101885,VALID,20.1125,VALID,17,VALID,0,
2002-10-28, 01:19:00,VALID,916.88,VALID,0,VALID,99.1813,VALID,-0.0849042,VALID,20.0995,VALID,2,VALID,0.10067,
2002-10-28, 01:20:00,VALID,916.852,VALID,0,VALID,99.175,VALID,-0.101885,VALID,20.0772,VALID,275,VALID,0.298986,
2002-10-28, 01:21:00,VALID,916.831,VALID,0,VALID,99.1686,VALID,-0.0849042,VALID,20.0503,VALID,274,VALID,0.163662,
2002-10-28, 01:22:00,VALID,916.813,VALID,0,VALID,99.1635,VALID,-0.0339617,VALID,20.0414,VALID,272,VALID,0.276116,
2002-10-28, 01:23:00,VALID,916.797,VALID,0,VALID,99.1534,VALID,-0.0849042,VALID,20.0257,VALID,272,VALID,0.296242,
2002-10-28, 01:24:00,VALID,916.796,VALID,0,VALID,99.1546,VALID,-0.0679233,VALID,20.0056,VALID,272,VALID,0.016059,
2002-10-28, 01:25:00,VALID,916.804,VALID,0,VALID,99.147,VALID,-0.0509425,VALID,19.9959,VALID,272,VALID,0.0255859,
2002-10-28, 01:26:00,VALID,916.803,VALID,0,VALID,99.1623,VALID,-0.0679233,VALID,19.9865,VALID,314,VALID,0.180889,
2002-10-28, 01:27:00,VALID,916.802,VALID,0,VALID,99.1788,VALID,-0.0849042,VALID,20.0091,VALID,336,VALID,0.192909,
2002-10-28, 01:28:00,VALID,916.799,VALID,0,VALID,99.1966,VALID,-0.0849042,VALID,19.9954,VALID,345,VALID,0.322483,
2002-10-28, 01:29:00,VALID,916.786,VALID,0,VALID,99.1979,VALID,-0.0849042,VALID,20.025,VALID,346,VALID,0.0654561,
2002-10-28, 01:30:00,VALID,916.772,VALID,0,VALID,99.2017,VALID,-0.0679233,VALID,20.0185,VALID,346,VALID,0,
2002-10-28, 01:31:00,VALID,916.767,VALID,0,VALID,99.2119,VALID,-0.0509425,VALID,20.0051,VALID,346,VALID,0.000822368,
2002-10-28, 01:32:00,VALID,916.771,VALID,0,VALID,99.2131,VALID,-0.0169808,VALID,20.022,VALID,346,VALID,0,
2002-10-28, 01:33:00,VALID,916.768,VALID,0,VALID,99.2131,VALID,-0.0849042,VALID,20.0091,VALID,346,VALID,0,
2002-10-28, 01:34:00,VALID,916.778,VALID,0,VALID,99.2309,VALID,-0.0849042,VALID,20.0185,VALID,346,VALID,0,
2002-10-28, 01:35:00,VALID,916.773,VALID,0,VALID,99.2322,VALID,-0.0509425,VALID,20.0151,VALID,346,VALID,0,
2002-10-28, 01:36:00,VALID,916.773,VALID,0,VALID,99.2386,VALID,-0.0679233,VALID,20.0126,VALID,346,VALID,0,
2002-10-28, 01:37:00,VALID,916.779,VALID,0,VALID,99.2386,VALID,0,VALID,19.9991,VALID,346,VALID,0,
2002-10-28, 01:38:00,VALID,916.783,VALID,0,VALID,99.2437,VALID,-0.0849042,VALID,19.9957,VALID,346,VALID,0,
2002-10-28, 01:39:00,VALID,916.784,VALID,0,VALID,99.2525,VALID,-0.0339617,VALID,20.0088,VALID,345,VALID,0,
2002-10-28, 01:40:00,VALID,916.785,VALID,0,VALID,99.2487,VALID,-0.0339617,VALID,20.0151,VALID,340,VALID,0.079603,
2002-10-28, 01:41:00,VALID,916.786,VALID,0,VALID,99.2538,VALID,-0.0849042,VALID,20.0026,VALID,340,VALID,0,
2002-10-28, 01:42:00,VALID,916.801,VALID,0,VALID,99.2475,VALID,-0.0509425,VALID,20.0188,VALID,340,VALID,0,
2002-10-28, 01:43:00,VALID,916.796,VALID,0,VALID,99.2627,VALID,-0.0679233,VALID,20.0126,VALID,333,VALID,0.0529983,
2002-10-28, 01:44:00,VALID,916.799,VALID,0,VALID,99.2564,VALID,-0.0849042,VALID,19.9959,VALID,283,VALID,0.350043,
2002-10-28, 01:45:00,VALID,916.794,VALID,0,VALID,99.2538,VALID,-0.0849042,VALID,19.983,VALID,283,VALID,0.0640625,
2002-10-28, 01:46:00,VALID,916.782,VALID,0,VALID,99.2627,VALID,-0.0679233,VALID,19.9991,VALID,283,VALID,0.0999599,
2002-10-28, 01:47:00,VALID,916.796,VALID,0,VALID,99.2665,VALID,-0.0679233,VALID,20.0024,VALID,283,VALID,0.11278,
2002-10-28, 01:48:00,VALID,916.776,VALID,0,VALID,99.2793,VALID,-0.0849042,VALID,20.0118,VALID,282,VALID,0.109158,
2002-10-28, 01:49:00,VALID,916.783,VALID,0,VALID,99.2665,VALID,-0.0679233,VALID,19.9957,VALID,282,VALID,0.0846706,
2002-10-28, 01:50:00,VALID,916.788,VALID,0,VALID,99.2551,VALID,-0.0849042,VALID,19.9793,VALID,282,VALID,0,
2002-10-28, 01:51:00,VALID,916.779,VALID,0,VALID,99.2704,VALID,-0.0849042,VALID,19.9924,VALID,282,VALID,0.00123355,
2002-10-28, 01:52:00,VALID,916.788,VALID,0,VALID,99.264,VALID,-0.0509425,VALID,19.9922,VALID,262,VALID,0.317491,
2002-10-28, 01:53:00,VALID,916.784,VALID,0,VALID,99.264,VALID,-0.0339617,VALID,19.9825,VALID,255,VALID,0.137669,
2002-10-28, 01:54:00,VALID,916.765,VALID,0,VALID,99.278,VALID,-0.0509425,VALID,19.9924,VALID,255,VALID,0.0242599,
2002-10-28, 01:55:00,VALID,916.751,VALID,0,VALID,99.2754,VALID,-0.0679233,VALID,20.0121,VALID,255,VALID,0.212838,
2002-10-28, 01:56:01,VALID,916.742,VALID,0,VALID,99.2818,VALID,-0.0679233,VALID,20.0118,VALID,255,VALID,0,
2002-10-28, 01:57:00,VALID,916.733,VALID,0,VALID,99.2856,VALID,-0.0339617,VALID,20.022,VALID,255,VALID,0,
2002-10-28, 01:58:00,VALID,916.723,VALID,0,VALID,99.2958,VALID,-0.0849042,VALID,20.0476,VALID,256,VALID,0.0420186,
2002-10-28, 01:59:00,VALID,916.723,VALID,0,VALID,99.3047,VALID,-0.0679233,VALID,20.0829,VALID,325,VALID,0.314955,
2002-10-28, 02:00:00,VALID,916.718,VALID,0,VALID,99.3085,VALID,-0.101885,VALID,20.0995,VALID,5,VALID,0.553209,
2002-10-28, 02:01:00,VALID,916.713,VALID,0,VALID,99.3034,VALID,-0.0849042,VALID,20.0926,VALID,25,VALID,0.71855,
2002-10-28, 02:02:00,VALID,916.72,VALID,0,VALID,99.3021,VALID,-0.0339617,VALID,20.0735,VALID,27,VALID,0.895536,
2002-10-28, 02:03:00,VALID,916.726,VALID,0,VALID,99.2869,VALID,-0.0509425,VALID,20.0797,VALID,32,VALID,1.04202,
2002-10-28, 02:04:01,VALID,916.711,VALID,0,VALID,99.2945,VALID,-0.101885,VALID,20.067,VALID,22,VALID,0.855035,
2002-10-28, 02:05:01,VALID,916.72,VALID,0,VALID,99.2843,VALID,-0.0169808,VALID,20.067,VALID,16,VALID,0.623828,
2002-10-28, 02:06:00,VALID,916.72,VALID,0,VALID,99.2793,VALID,-0.0339617,VALID,20.0605,VALID,12,VALID,0.423878,
2002-10-28, 02:07:00,VALID,916.719,VALID,0,VALID,99.2742,VALID,-0.0509425,VALID,20.0411,VALID,11,VALID,0.778245,
2002-10-28, 02:08:00,VALID,916.713,VALID,0,VALID,99.2678,VALID,-0.0679233,VALID,20.0252,VALID,15,VALID,0.757813,
2002-10-28, 02:09:00,VALID,916.719,VALID,0,VALID,99.278,VALID,-0.0169808,VALID,20.0344,VALID,11,VALID,0.85114,
2002-10-28, 02:10:00,VALID,916.704,VALID,0,VALID,99.2843,VALID,-0.0509425,VALID,20.0215,VALID,20,VALID,0.990337,
2002-10-28, 02:11:00,VALID,916.714,VALID,0,VALID,99.2678,VALID,-0.0679233,VALID,20.0024,VALID,14,VALID,0.900493,
2002-10-28, 02:12:00,VALID,916.681,VALID,0,VALID,99.2793,VALID,-0.0509425,VALID,20.0096,VALID,20,VALID,0.763672,
2002-10-28, 02:13:00,VALID,916.67,VALID,0,VALID,99.2729,VALID,-0.0679233,VALID,19.9989,VALID,4,VALID,0.69848,
2002-10-28, 02:14:00,VALID,916.672,VALID,0,VALID,99.2818,VALID,-0.0849042,VALID,20.0054,VALID,352,VALID,0.717311,
2002-10-28, 02:15:01,VALID,916.633,VALID,0,VALID,99.2831,VALID,-0.0849042,VALID,19.9924,VALID,11,VALID,0.701647,
2002-10-28, 02:16:01,VALID,916.614,VALID,0,VALID,99.2856,VALID,-0.0849042,VALID,20.0088,VALID,9,VALID,0.755208,
2002-10-28, 02:17:00,VALID,916.604,VALID,0,VALID,99.2716,VALID,-0.0849042,VALID,19.9895,VALID,17,VALID,0.741976,
2002-10-28, 02:18:00,VALID,916.57,VALID,0,VALID,99.2742,VALID,-0.0849042,VALID,19.99,VALID,11,VALID,0.434966,
2002-10-28, 02:19:00,VALID,916.534,VALID,0,VALID,99.2894,VALID,-0.0169808,VALID,19.982,VALID,20,VALID,0.760491,
2002-10-28, 02:20:00,VALID,916.507,VALID,0,VALID,99.2907,VALID,-0.0339617,VALID,19.9887,VALID,20,VALID,1.0568,
2002-10-28, 02:21:00,VALID,916.479,VALID,0,VALID,99.2945,VALID,-0.0339617,VALID,19.9753,VALID,4,VALID,0.710136,
2002-10-28, 02:22:00,VALID,916.465,VALID,0,VALID,99.2882,VALID,-0.0169808,VALID,19.9653,VALID,359,VALID,0.234375,
2002-10-28, 02:23:00,VALID,916.446,VALID,0,VALID,99.3021,VALID,0,VALID,19.985,VALID,7,VALID,0.588894,
2002-10-28, 02:24:01,VALID,916.442,VALID,0,VALID,99.3021,VALID,-0.0679233,VALID,19.989,VALID,13,VALID,0.619575,
2002-10-28, 02:25:01,VALID,916.425,VALID,0,VALID,99.2932,VALID,-0.0169808,VALID,19.9624,VALID,27,VALID,0.791211,
2002-10-28, 02:26:01,VALID,916.411,VALID,0,VALID,99.2932,VALID,-0.0169808,VALID,19.9494,VALID,35,VALID,0.652444,
2002-10-28, 02:27:00,VALID,916.383,VALID,0,VALID,99.2932,VALID,-0.0169808,VALID,19.9171,VALID,27,VALID,0.765224,
2002-10-28, 02:28:00,VALID,916.379,VALID,0,VALID,99.2831,VALID,0,VALID,19.901,VALID,44,VALID,0.642578,
2002-10-28, 02:29:00,VALID,916.367,VALID,0,VALID,99.2983,VALID,-0.0339617,VALID,19.9171,VALID,36,VALID,0.558066,
2002-10-28, 02:30:00,VALID,916.367,VALID,0,VALID,99.3085,VALID,0,VALID,19.9206,VALID,34,VALID,0.590666,
2002-10-28, 02:31:00,VALID,916.353,VALID,0,VALID,99.3085,VALID,0,VALID,19.9005,VALID,33,VALID,0.203125,
2002-10-28, 02:32:00,VALID,916.367,VALID,0,VALID,99.3098,VALID,0,VALID,19.9268,VALID,13,VALID,0.185113,
2002-10-28, 02:33:00,VALID,916.352,VALID,0,VALID,99.3174,VALID,0.0169808,VALID,19.9102,VALID,5,VALID,0.0958615,
2002-10-28, 02:34:00,VALID,916.353,VALID,0,VALID,99.3187,VALID,0,VALID,19.897,VALID,5,VALID,0.0518092,
2002-10-28, 02:35:01,VALID,916.34,VALID,0,VALID,99.3352,VALID,0.0169808,VALID,19.9201,VALID,5,VALID,0,
2002-10-28, 02:36:01,VALID,916.344,VALID,0,VALID,99.3327,VALID,0,VALID,19.9201,VALID,5,VALID,0.0378606,
2002-10-28, 02:37:00,VALID,916.353,VALID,0,VALID,99.3428,VALID,0,VALID,19.9363,VALID,7,VALID,0.248311,
2002-10-28, 02:38:00,VALID,916.354,VALID,0,VALID,99.3606,VALID,0,VALID,19.9621,VALID,8,VALID,0.102618,
2002-10-28, 02:39:00,VALID,916.352,VALID,0,VALID,99.339,VALID,0,VALID,19.9693,VALID,8,VALID,0,
2002-10-28, 02:40:00,VALID,916.345,VALID,0,VALID,99.3454,VALID,0,VALID,19.9527,VALID,8,VALID,0,
2002-10-28, 02:41:00,VALID,916.332,VALID,0,VALID,99.3492,VALID,0,VALID,19.9524,VALID,8,VALID,0.00661058,
2002-10-28, 02:42:00,VALID,916.332,VALID,0,VALID,99.3657,VALID,0,VALID,19.9484,VALID,8,VALID,0.148214,
2002-10-28, 02:43:00,VALID,916.331,VALID,0,VALID,99.3492,VALID,-0.0169808,VALID,19.9686,VALID,8,VALID,0.294552,
2002-10-28, 02:44:01,VALID,916.34,VALID,0,VALID,99.3428,VALID,0,VALID,19.9556,VALID,8,VALID,0.0429688,
2002-10-28, 02:45:01,VALID,916.353,VALID,0,VALID,99.3479,VALID,0,VALID,19.9522,VALID,8,VALID,0.186914,
2002-10-28, 02:46:00,VALID,916.356,VALID,0,VALID,99.3225,VALID,0.0169808,VALID,19.946,VALID,8,VALID,0.130809,
2002-10-28, 02:47:00,VALID,916.366,VALID,0,VALID,99.3123,VALID,0,VALID,19.9228,VALID,8,VALID,0,
2002-10-28, 02:48:00,VALID,916.357,VALID,0,VALID,99.3136,VALID,0,VALID,19.9107,VALID,8,VALID,0,
2002-10-28, 02:49:00,VALID,916.383,VALID,0,VALID,99.3199,VALID,0,VALID,19.8973,VALID,8,VALID,0,
2002-10-28, 02:50:00,VALID,916.364,VALID,0,VALID,99.3212,VALID,-0.0169808,VALID,19.897,VALID,8,VALID,0,
2002-10-28, 02:51:00,VALID,916.365,VALID,0,VALID,99.3212,VALID,0,VALID,19.894,VALID,8,VALID,0.0902549,
2002-10-28, 02:52:00,VALID,916.339,VALID,0,VALID,99.3199,VALID,0,VALID,19.8905,VALID,11,VALID,0.159939,
2002-10-28, 02:53:00,VALID,916.334,VALID,0,VALID,99.325,VALID,0,VALID,19.898,VALID,75,VALID,0.201436,
2002-10-28, 02:54:00,VALID,916.31,VALID,0,VALID,99.3339,VALID,0,VALID,19.9104,VALID,75,VALID,0.0923109,
2002-10-28, 02:55:01,VALID,916.295,VALID,0,VALID,99.3365,VALID,0,VALID,19.9104,VALID,75,VALID,0.0703125,
2002-10-28, 02:56:01,VALID,916.268,VALID,0,VALID,99.3517,VALID,0,VALID,19.9296,VALID,75,VALID,0,
2002-10-28, 02:57:00,VALID,916.256,VALID,0,VALID,99.353,VALID,0,VALID,19.9363,VALID,75,VALID,0.0342061,
2002-10-28, 02:58:00,VALID,916.243,VALID,0,VALID,99.3479,VALID,0,VALID,19.9427,VALID,75,VALID,0.0365287,
2002-10-28, 02:59:00,VALID,916.231,VALID,0,VALID,99.353,VALID,0,VALID,19.9494,VALID,76,VALID,0.0578125,
2002-10-28, 03:00:00,VALID,916.244,VALID,0,VALID,99.3581,VALID,0,VALID,19.9556,VALID,118,VALID,0.342483,
2002-10-28, 03:01:00,VALID,916.229,VALID,0,VALID,99.3314,VALID,-0.0169808,VALID,19.9494,VALID,136,VALID,0.186899,
2002-10-28, 03:02:00,VALID,916.229,VALID,0,VALID,99.339,VALID,-0.0169808,VALID,19.9631,VALID,136,VALID,0.0111607,
2002-10-28, 03:03:00,VALID,916.223,VALID,0,VALID,99.3403,VALID,-0.0169808,VALID,19.9494,VALID,136,VALID,0.178632,
2002-10-28, 03:04:01,VALID,916.215,VALID,0,VALID,99.3441,VALID,0,VALID,19.9524,VALID,141,VALID,0.511502,
2002-10-28, 03:05:01,VALID,916.198,VALID,0,VALID,99.3301,VALID,0,VALID,19.9562,VALID,147,VALID,0.494336,
2002-10-28, 03:06:01,VALID,916.179,VALID,0,VALID,99.3466,VALID,0,VALID,19.9395,VALID,145,VALID,0.489183,
2002-10-28, 03:07:00,VALID,916.162,VALID,0,VALID,99.3441,VALID,0,VALID,19.9524,VALID,146,VALID,0.279046,
2002-10-28, 03:08:01,VALID,916.141,VALID,0,VALID,99.3352,VALID,0.0169808,VALID,19.9562,VALID,147,VALID,0.519314,
2002-10-28, 03:09:00,VALID,916.132,VALID,0,VALID,99.325,VALID,0,VALID,19.9301,VALID,141,VALID,0.669764,
2002-10-28, 03:10:00,VALID,916.131,VALID,0,VALID,99.3314,VALID,0,VALID,19.9298,VALID,119,VALID,0.410362,
2002-10-28, 03:11:00,VALID,916.094,VALID,0,VALID,99.3288,VALID,-0.0169808,VALID,19.9166,VALID,129,VALID,0.500617,
2002-10-28, 03:12:00,VALID,916.099,VALID,0,VALID,99.3403,VALID,-0.0169808,VALID,19.9102,VALID,128,VALID,0.222005,
2002-10-28, 03:13:00,VALID,916.1,VALID,0,VALID,99.3352,VALID,-0.0169808,VALID,19.9142,VALID,133,VALID,0.505701,
2002-10-28, 03:14:00,VALID,916.105,VALID,0,VALID,99.3466,VALID,0,VALID,19.9005,VALID,146,VALID,0.432771,
2002-10-28, 03:15:01,VALID,916.106,VALID,0,VALID,99.339,VALID,0,VALID,19.894,VALID,147,VALID,0.783573,
2002-10-28, 03:16:01,VALID,916.11,VALID,0,VALID,99.3428,VALID,0,VALID,19.8945,VALID,147,VALID,0.46895,
2002-10-28, 03:17:00,VALID,916.113,VALID,0,VALID,99.3568,VALID,-0.0339617,VALID,19.901,VALID,147,VALID,0.225084,
2002-10-28, 03:18:00,VALID,916.103,VALID,0,VALID,99.353,VALID,-0.0169808,VALID,19.9139,VALID,160,VALID,0.592694,
2002-10-28, 03:19:00,VALID,916.097,VALID,0,VALID,99.339,VALID,0,VALID,19.9007,VALID,156,VALID,0.644196,
2002-10-28, 03:20:00,VALID,916.108,VALID,0,VALID,99.3505,VALID,0.0339617,VALID,19.9005,VALID,142,VALID,0.432432,
2002-10-28, 03:21:00,VALID,916.098,VALID,0,VALID,99.3492,VALID,0.0339617,VALID,19.9074,VALID,148,VALID,0.512019,
2002-10-28, 03:22:00,VALID,916.097,VALID,0,VALID,99.3441,VALID,0.0339617,VALID,19.8973,VALID,151,VALID,0.631473,
2002-10-28, 03:23:00,VALID,916.098,VALID,0,VALID,99.3454,VALID,0.0169808,VALID,19.891,VALID,153,VALID,0.64527,
2002-10-28, 03:24:01,VALID,916.101,VALID,0,VALID,99.3479,VALID,0.0509425,VALID,19.8948,VALID,152,VALID,0.743924,
2002-10-28, 03:25:01,VALID,916.09,VALID,0,VALID,99.353,VALID,0.0339617,VALID,19.8978,VALID,166,VALID,0.598828,
2002-10-28, 03:26:01,VALID,916.087,VALID,0,VALID,99.3454,VALID,0.0339617,VALID,19.8814,VALID,152,VALID,0.60617,
2002-10-28, 03:27:00,VALID,916.102,VALID,0,VALID,99.3594,VALID,0.0339617,VALID,19.8878,VALID,147,VALID,0.748998,
2002-10-28, 03:28:01,VALID,916.107,VALID,0,VALID,99.3708,VALID,0.0339617,VALID,19.8943,VALID,157,VALID,0.774306,
2002-10-28, 03:29:01,VALID,916.106,VALID,0,VALID,99.3543,VALID,0.0339617,VALID,19.8878,VALID,153,VALID,0.914485,
2002-10-28, 03:30:01,VALID,916.116,VALID,0,VALID,99.3556,VALID,0.0339617,VALID,19.8814,VALID,137,VALID,0.553043,
2002-10-28, 03:31:01,VALID,916.107,VALID,0,VALID,99.3721,VALID,0.0169808,VALID,19.9045,VALID,125,VALID,0.392064,
2002-10-28, 03:32:00,VALID,916.11,VALID,0,VALID,99.3708,VALID,0.0169808,VALID,19.8978,VALID,142,VALID,0.779948,
2002-10-28, 03:33:01,VALID,916.09,VALID,0,VALID,99.3708,VALID,0.0169808,VALID,19.8938,VALID,130,VALID,0.634502,
2002-10-28, 03:34:01,VALID,916.1,VALID,0,VALID,99.3695,VALID,0.0169808,VALID,19.8943,VALID,107,VALID,0.346217,